Location: Innerarity Island Observatory
(30.3139°N, 87.4867°W)
Time: 04:57:14
(UTC-06:00)

Amateur Radio Satellites - All Passes

Search period start: 17 January 2017 04:27
Search period end: 18 January 2017 04:27
Location: Innerarity Island Observatory, 30.3139°N, 87.4867°W

Satellite Date Start Highest point End Downlink Frequencies (MHz)
Time Altitude Azimuth
BRITE-PL 17 Jan 04:45:51 04:50:46 82° 102° (ESE) 04:55:15 437.365/2234.400
CUTE-I 17 Jan 04:59:09 05:02:11 15° 94° (E) 05:05:12 437.470
LilacSat-2 17 Jan 05:01:48 05:03:53 14° 95° (E) 05:05:58 437.200
GOMX 1 17 Jan 05:09:51 05:14:09 50° 99° (E) 05:18:14 467.674
NOAA 18 17 Jan 05:16:06 05:16:55 10° 93° (E) 05:17:45 137.9125
DANDE 17 Jan 05:19:12 05:20:55 13° 292° (WNW) 05:22:48 436.750
AIST 2 17 Jan 05:21:13 05:25:22 51° 61° (ENE) 05:29:28 435.215
HORYU 2 17 Jan 05:24:07 05:28:33 84° 286° (WNW) 05:33:01 437.375
CUBESAT XI-V 17 Jan 05:24:37 05:26:16 12° 267° (W) 05:27:56 437.345
STRAND 1 17 Jan 05:34:27 05:38:10 21° 69° (ENE) 05:41:55 437.568
Cubesat XI-IV 17 Jan 05:39:21 05:44:22 41° 99° (E) 05:49:22 437.490
O/OREOS (USA 219) 17 Jan 05:48:31 05:52:18 27° 102° (ESE) 05:56:04 437.305
HO-68 17 Jan 05:59:59 06:02:40 12° 93° (E) 06:05:19 435.675
NOAA 15 17 Jan 06:02:00 06:07:20 77° 102° (ESE) 06:12:37 137.62
Cosmos 2499 17 Jan 06:03:23 06:09:04 25° 75° (ENE) 06:14:41 435.465 / 435.565
DOVE 4 17 Jan 06:08:21 06:12:33 88° 281° (WNW) 06:16:41 437.250
CANX-2 17 Jan 06:12:26 06:12:46 10° 93° (E) 06:13:06 2200.000
RS-15 17 Jan 06:19:25 06:24:23 13° 26° (NNE) 06:29:17 29.354- 29.394
CINEMA 3 17 Jan 06:27:52 06:31:28 27° 98° (E) 06:35:07 145.822/145.860
GONETS M04 17 Jan 06:28:55 06:36:57 38° 77° (ENE) 06:44:57
LilacSat-2 17 Jan 06:34:50 06:38:08 27° 286° (WNW) 06:41:27 437.200
PHONESAT 2.4 17 Jan 06:36:40 06:36:59 10° 12° (NNE) 06:37:18 2401.200-2431.200
CUTE-I 17 Jan 06:37:15 06:42:23 49° 287° (WNW) 06:47:31 437.470
ISS 17 Jan 06:40:31 06:43:46 76° 46° (NE) 06:47:01 145.825
NOAA 18 17 Jan 06:52:31 06:57:56 71° 285° (WNW) 07:03:21 137.9125
STRAND 1 17 Jan 07:12:29 07:17:04 34° 262° (W) 07:21:41 437.568
CUTE 1.7 + AOD 2 17 Jan 07:16:08 07:20:23 61° 101° (E) 07:24:37 437.475
Cubesat XI-IV 17 Jan 07:20:23 07:24:05 19° 292° (WNW) 07:27:46 437.490
O/OREOS (USA 219) 17 Jan 07:28:20 07:31:37 20° 296° (WNW) 07:34:55 437.305
PRISM 17 Jan 07:29:48 07:31:59 14° 69° (ENE) 07:34:10 437.425
HO-68 17 Jan 07:43:45 07:50:57 85° 285° (WNW) 07:58:06 435.675
CANX-2 17 Jan 07:44:39 07:48:48 47° 284° (WNW) 07:52:54 2200.000
NOAA 15 17 Jan 07:45:42 07:46:22 10° 296° (WNW) 07:47:03 137.62
CUBEBUG 2 17 Jan 07:47:26 07:51:41 55° 100° (E) 07:56:04 437.445
Cosmos 2499 17 Jan 07:55:42 08:02:14 41° 270° (W) 08:08:44 435.465 / 435.565
Oscar 11 17 Jan 07:59:21 08:02:36 20° 96° (E) 08:05:50 145.826/435.025
SEEDS 17 Jan 08:03:39 08:07:47 51° 285° (WNW) 08:11:53 437.485
CINEMA 3 17 Jan 08:05:38 08:08:22 17° 289° (WNW) 08:11:09 145.822/145.860
SO-50 17 Jan 08:07:27 08:12:12 82° 296° (WNW) 08:16:55 436.795
PHONESAT 2.4 17 Jan 08:09:17 08:11:33 46° 27° (NNE) 08:13:49 2401.200-2431.200
COMPASS 1 17 Jan 08:16:16 08:20:23 56° 284° (WNW) 08:24:29 437.405
UNISAT 6 17 Jan 08:20:51 08:23:18 15° 69° (ENE) 08:25:45 437.425
UWE-3 17 Jan 08:23:43 08:28:05 87° 282° (WNW) 08:32:34 435.000/436.395/437.385
GONETS M04 17 Jan 08:25:41 08:33:34 38° 273° (W) 08:41:27
RS-15 17 Jan 08:29:25 08:41:10 47° 54° (NE) 08:52:23 29.354- 29.394
FUNcube-1 17 Jan 08:30:06 08:34:25 56° 100° (E) 08:38:48 145.935
AAUSAT CUBESAT 2 17 Jan 08:31:29 08:35:31 48° 285° (WNW) 08:39:30 437.432
TIGRISAT 17 Jan 08:34:36 08:37:45 20° 71° (ENE) 08:40:54 435.000
DELFI C3 17 Jan 08:46:45 08:49:53 22° 96° (E) 08:52:58 145.870
ANTELSAT 17 Jan 08:48:08 08:51:57 32° 73° (ENE) 08:55:44 437.575/2403.000
JAS-2 17 Jan 08:50:51 08:51:55 11° 62° (ENE) 08:52:58 435.910
ZACube-1 17 Jan 08:50:58 08:55:19 71° 283° (WNW) 08:59:46 437.345
PRISM 17 Jan 09:03:07 09:06:54 34° 261° (W) 09:10:43 437.425
HUMSAT D 17 Jan 09:34:37 09:38:46 48° 100° (E) 09:42:54 437.325/437.525
HO-68 17 Jan 09:35:02 09:37:36 12° 301° (WNW) 09:40:08 435.675
Oscar 11 17 Jan 09:35:03 09:38:37 25° 288° (WNW) 09:42:10 145.826/435.025
PHONESAT 2.4 17 Jan 09:44:56 09:45:31 11° 219° (SW) 09:46:07 2401.200-2431.200
NANOSAT C BR1 17 Jan 09:45:36 09:46:00 10° 68° (ENE) 09:46:24 145.865
UNISAT 6 17 Jan 09:55:50 09:59:42 33° 261° (W) 10:03:34 437.425
PCSat 17 Jan 10:00:10 10:04:44 27° 58° (ENE) 10:09:17 145.827
TIGRISAT 17 Jan 10:10:49 10:14:16 24° 263° (W) 10:17:42 435.000
DELFI C3 17 Jan 10:21:38 10:24:30 19° 289° (WNW) 10:27:20 145.870
ANTELSAT 17 Jan 10:26:14 10:28:40 15° 265° (W) 10:31:06 437.575/2403.000
BUGSAT 1 17 Jan 10:30:57 10:31:50 11° 68° (ENE) 10:32:42 437.445
JAS-2 17 Jan 10:31:04 10:36:12 68° 259° (WSW) 10:41:39 435.910
QB50P1 17 Jan 10:31:41 10:35:41 45° 74° (ENE) 10:39:41 145.935-145.965
POLYITAN 1 17 Jan 10:34:36 10:38:39 50° 75° (ENE) 10:42:42 437.675
BY70-1 17 Jan 10:35:02 10:38:22 64° 101° (E) 10:41:29 436.1900
QB50P2 17 Jan 10:35:38 10:39:45 56° 75° (ENE) 10:43:52 145.880/145.840
RS-15 17 Jan 10:42:14 10:53:26 45° 253° (WSW) 11:04:12 29.354- 29.394
CUBEBUG 1 17 Jan 10:51:12 10:54:34 22° 96° (E) 10:57:54 437.445
POPSAT HIP 1 17 Jan 10:58:00 11:02:12 82° 259° (W) 11:06:24 437.405
AISAT 17 Jan 10:58:33 11:01:22 17° 95° (E) 11:04:10 437.250
ESTCUBE 1 17 Jan 11:04:00 11:08:29 61° 101° (E) 11:12:55 437.505/2401.250
HUMSAT D 17 Jan 11:12:53 11:13:53 11° 292° (WNW) 11:14:53 437.325/437.525
DUCHIFAT 1 17 Jan 11:13:28 11:17:35 60° 259° (W) 11:21:43 145.980
NANOSAT C BR1 17 Jan 11:17:12 11:21:14 48° 260° (W) 11:25:17 145.865
VELOX 1 17 Jan 11:31:01 11:35:10 40° 99° (E) 11:39:15 145.980
Oscar 19 17 Jan 11:35:19 11:38:55 19° 68° (ENE) 11:42:31 437.125/150
PCSat 17 Jan 11:43:19 11:48:03 31° 252° (WSW) 11:52:45 145.827
BUGSAT 1 17 Jan 12:02:51 12:06:46 43° 260° (W) 12:10:39 437.445
50 SAT 17 Jan 12:06:56 12:10:30 82° 283° (WNW) 12:14:01 437.505
QB50P1 17 Jan 12:11:25 12:11:35 10° 267° (W) 12:11:45 145.935-145.965
DX 1 17 Jan 12:14:48 12:19:06 61° 101° (ESE) 12:23:21 434.975-435.025
UKube-1 17 Jan 12:21:04 12:25:16 50° 100° (E) 12:29:26 .
SPROUT 17 Jan 12:26:13 12:30:22 54° 285° (WNW) 12:34:31 437.525
CUBEBUG 1 17 Jan 12:27:19 12:30:42 23° 289° (WNW) 12:34:03 437.445
TISAT 1 17 Jan 12:32:08 12:34:56 17° 96° (E) 12:37:44 437.305
AISAT 17 Jan 12:33:58 12:37:48 30° 288° (WNW) 12:41:38 437.250
Cosmos 2491 17 Jan 12:39:37 12:47:34 37° 77° (ENE) 12:55:29 435.465 / 435.565
YUBILEINY 17 Jan 12:43:07 12:48:20 17° 81° (E) 12:53:32 435.215
AIST 1 17 Jan 12:51:35 12:53:15 12° 87° (E) 12:54:55
Gurwin Techsat 1B 17 Jan 12:58:44 13:04:01 72° 75° (ENE) 13:09:19 435.225
VELOX 1 17 Jan 13:09:03 13:11:12 14° 292° (WNW) 13:13:21 145.980
AO-7 17 Jan 13:11:24 13:17:18 22° 60° (ENE) 13:23:12 29.400- 29.500
Oscar 19 17 Jan 13:13:03 13:17:52 39° 261° (W) 13:22:44 437.125/150
JUGNU 17 Jan 13:37:46 13:41:19 16° 164° (SSE) 13:44:53 437.505
ITAMSAT 1 17 Jan 13:48:22 13:53:08 39° 72° (ENE) 13:57:55 435.822/435.867
AO-85 17 Jan 13:50:30 13:55:25 74° 115° (ESE) 13:59:58 145.980
UKube-1 17 Jan 14:00:07 14:00:47 10° 293° (WNW) 14:01:26 .
CUSAT 1 17 Jan 14:00:19 14:08:07 53° 78° (ENE) 14:15:15 437.405
TISAT 1 17 Jan 14:07:00 14:10:30 26° 288° (WNW) 14:13:59 437.305
ITUPSAT 1 17 Jan 14:07:18 14:11:50 41° 100° (E) 14:16:21 437.325
Cosmos 2504 17 Jan 14:08:48 14:16:47 40° 89° (E) 14:24:28 435.465 / 435.565
DANDE 17 Jan 14:15:54 14:22:19 27° 75° (ENE) 14:29:01 436.750
AIST 1 17 Jan 14:26:18 14:30:24 38° 279° (W) 14:34:30
YUBILEINY 17 Jan 14:35:18 14:44:03 75° 276° (W) 14:52:55 435.215
Cosmos 2491 17 Jan 14:36:22 14:44:13 39° 272° (W) 14:52:07 435.465 / 435.565
BEESAT 17 Jan 14:44:05 14:48:51 73° 284° (WNW) 14:53:37 436.000
SWISSCUBE 17 Jan 14:45:23 14:50:08 61° 285° (WNW) 14:54:50 437.505
AO-7 17 Jan 15:00:57 15:09:14 70° 255° (WSW) 15:17:36 29.400- 29.500
M-CUBED/EXP-1 PRIME 17 Jan 15:09:04 15:11:04 15° 100° (E) 15:13:03 437.505
MOZHAYETS 4 17 Jan 15:09:44 15:14:20 60° 101° (E) 15:18:54
JUGNU 17 Jan 15:24:53 15:29:47 27° 173° (S) 15:34:43 437.505
ITAMSAT 1 17 Jan 15:29:11 15:32:40 18° 265° (W) 15:36:08 435.822/435.867
BEESAT 3 17 Jan 15:30:24 15:32:56 17° 109° (ESE) 15:35:30 437.485
AO-85 17 Jan 15:35:28 15:36:09 10° 308° (NW) 15:36:50 145.980
STARS 17 Jan 15:41:53 15:44:23 15° 95° (E) 15:46:53 437.465
CUSAT 1 17 Jan 15:43:12 15:49:28 26° 274° (W) 15:55:21 437.405
ITUPSAT 1 17 Jan 15:46:23 15:49:16 16° 292° (WNW) 15:52:09 437.325
CUBESAT XI-V 17 Jan 15:47:22 15:50:45 20° 95° (E) 15:54:06 437.345
AUBIESAT-1 17 Jan 15:47:37 15:50:50 45° 104° (ESE) 15:53:59 437.475
BRITE-PL 17 Jan 15:49:09 15:54:36 53° 74° (ENE) 16:00:07 437.365/2234.400
DANDE 17 Jan 15:57:30 16:05:11 58° 267° (W) 16:13:18 436.750
Cosmos 2504 17 Jan 16:02:09 16:10:01 36° 282° (WNW) 16:17:39 435.465 / 435.565
O/OREOS (USA 219) 17 Jan 16:04:10 16:07:38 21° 65° (ENE) 16:11:05 437.305
BEESAT 2 17 Jan 16:07:32 16:10:19 19° 110° (ESE) 16:13:08 435.950
GOMX 1 17 Jan 16:11:04 16:15:58 34° 73° (ENE) 16:20:45 467.674
KKS-1 17 Jan 16:13:56 16:18:22 84° 283° (WNW) 16:22:46 437.445
CUTE-I 17 Jan 16:15:57 16:18:52 15° 66° (ENE) 16:21:47 437.470
HORYU 2 17 Jan 16:16:22 16:20:30 42° 74° (ENE) 16:24:40 437.375
NOAA 18 17 Jan 16:35:58 16:38:26 13° 64° (ENE) 16:40:54 137.9125
YUBILEINY 17 Jan 16:41:45 16:42:14 10° 294° (WNW) 16:42:43 435.215
M-CUBED/EXP-1 PRIME 17 Jan 16:43:12 16:45:29 17° 293° (WNW) 16:47:41 437.505
SO-50 17 Jan 16:45:20 16:48:30 19° 54° (NE) 16:51:38 436.795
SRMSAT 17 Jan 16:48:15 16:52:39 21° 167° (SSE) 16:57:02 437.500
MOZHAYETS 4 17 Jan 16:50:17 16:50:54 10° 294° (WNW) 16:51:32
Cubesat XI-IV 17 Jan 16:55:46 17:00:39 38° 72° (ENE) 17:05:32 437.490
DOVE 4 17 Jan 17:07:01 17:12:00 49° 75° (ENE) 17:16:45 437.250
BEESAT 3 17 Jan 17:07:02 17:10:19 26° 303° (WNW) 17:13:37 437.485
LilacSat-2 17 Jan 17:10:23 17:14:04 57° 76° (ENE) 17:17:46 437.200
JUGNU 17 Jan 17:13:15 17:18:20 29° 183° (S) 17:23:27 437.505
NOAA 15 17 Jan 17:16:12 17:21:26 69° 75° (ENE) 17:26:42 137.62
STARS 17 Jan 17:16:49 17:20:45 34° 287° (WNW) 17:24:41 437.465
CUBESAT XI-V 17 Jan 17:24:00 17:28:04 30° 288° (WNW) 17:32:07 437.345
CINEMA 3 17 Jan 17:25:14 17:27:38 14° 70° (ENE) 17:29:58 145.822/145.860
BRITE-PL 17 Jan 17:29:47 17:33:14 16° 267° (W) 17:36:42 437.365/2234.400
O/OREOS (USA 219) 17 Jan 17:43:13 17:46:55 25° 258° (WSW) 17:50:38 437.305
BEESAT 2 17 Jan 17:44:39 17:47:53 24° 303° (WNW) 17:51:10 435.950
GOMX 1 17 Jan 17:49:37 17:53:56 24° 264° (W) 17:58:13 467.674
STRAND 1 17 Jan 17:52:38 17:53:46 11° 93° (E) 17:54:55 437.568
CUTE-I 17 Jan 17:53:15 17:58:25 53° 259° (W) 18:03:36 437.470
HORYU 2 17 Jan 17:55:25 17:57:11 12° 266° (W) 17:58:56 437.375
CUTE 1.7 + AOD 2 17 Jan 18:03:49 18:06:56 20° 71° (ENE) 18:10:05 437.475
HO-68 17 Jan 18:06:04 18:12:39 40° 69° (ENE) 18:19:15 435.675
NOAA 18 17 Jan 18:13:00 18:18:28 65° 258° (WSW) 18:23:56 137.9125
SO-50 17 Jan 18:24:58 18:29:00 34° 248° (WSW) 18:33:01 436.795
CANX-2 17 Jan 18:31:12 18:35:19 54° 76° (ENE) 18:39:29 2200.000
Cosmos 2499 17 Jan 18:32:10 18:39:10 28° 87° (E) 18:45:49 435.465 / 435.565
SRMSAT 17 Jan 18:36:11 18:41:20 30° 177° (S) 18:46:28 437.500
Cubesat XI-IV 17 Jan 18:36:59 18:40:45 20° 264° (W) 18:44:32 437.490
CUBEBUG 2 17 Jan 18:40:48 18:44:01 21° 72° (ENE) 18:47:12 437.445
DOVE 4 17 Jan 18:47:07 18:49:45 14° 266° (W) 18:52:20 437.250
SEEDS 17 Jan 18:49:11 18:53:13 48° 76° (ENE) 18:57:18 437.485
CINEMA 3 17 Jan 19:00:09 19:04:26 39° 261° (W) 19:08:34 145.822/145.860
COMPASS 1 17 Jan 19:00:54 19:04:50 42° 75° (ENE) 19:08:48 437.405
NOAA 15 17 Jan 19:00:58 19:01:33 10° 267° (W) 19:02:08 137.62
JUGNU 17 Jan 19:02:28 19:06:51 21° 193° (SSW) 19:11:17 437.505
AIST 2 17 Jan 19:13:07 19:16:58 42° 113° (ESE) 19:20:52 435.215
UWE-3 17 Jan 19:15:23 19:19:09 34° 74° (ENE) 19:22:53 435.000/436.395/437.385
AAUSAT CUBESAT 2 17 Jan 19:15:26 19:19:26 47° 75° (ENE) 19:23:27 437.432
FUNcube-1 17 Jan 19:20:59 19:23:59 20° 71° (ENE) 19:27:00 145.935
GONETS M04 17 Jan 19:22:18 19:30:35 52° 90° (E) 19:38:56
STRAND 1 17 Jan 19:28:10 19:33:15 63° 285° (WNW) 19:38:19 437.568
CUTE 1.7 + AOD 2 17 Jan 19:39:10 19:42:35 24° 264° (W) 19:46:01 437.475
ZACube-1 17 Jan 19:41:13 19:45:06 40° 74° (ENE) 19:48:58 437.345
HO-68 17 Jan 19:54:10 20:00:19 31° 262° (W) 20:06:30 435.675
CUBEBUG 2 17 Jan 20:17:15 20:20:30 21° 263° (W) 20:23:43 437.445
HUMSAT D 17 Jan 20:21:33 20:23:58 15° 70° (ENE) 20:26:24 437.325/437.525
Oscar 11 17 Jan 20:23:01 20:27:17 68° 259° (WSW) 20:31:35 145.826/435.025
Cosmos 2499 17 Jan 20:23:37 20:31:53 48° 279° (W) 20:39:41 435.465 / 435.565
SRMSAT 17 Jan 20:25:04 20:30:03 27° 187° (S) 20:35:01 437.500
COMPASS 1 17 Jan 20:39:27 20:40:30 11° 267° (W) 20:41:33 437.405
ANTELSAT 17 Jan 20:47:21 20:48:33 11° 94° (E) 20:49:46 437.575/2403.000
PRISM 17 Jan 20:49:49 20:53:47 46° 100° (E) 20:57:42 437.425
AIST 2 17 Jan 20:53:33 20:55:37 13° 308° (NW) 20:57:41 435.215
UWE-3 17 Jan 20:53:41 20:55:39 13° 266° (W) 20:57:36 435.000/436.395/437.385
FUNcube-1 17 Jan 20:56:48 21:00:03 22° 264° (W) 21:03:18 145.935
DELFI C3 17 Jan 21:00:02 21:04:01 77° 260° (W) 21:08:02 145.870
ZACube-1 17 Jan 21:20:27 21:21:29 11° 266° (W) 21:22:32 437.345
GONETS M04 17 Jan 21:20:37 21:27:37 27° 286° (WNW) 21:34:42
ISS 17 Jan 21:40:07 21:43:06 34° 130° (SE) 21:46:05 145.825
JAS-2 17 Jan 21:45:06 21:51:00 26° 96° (E) 21:57:09 435.910
UNISAT 6 17 Jan 21:52:12 21:56:38 76° 102° (ESE) 22:01:10 437.425
HUMSAT D 17 Jan 21:55:44 21:59:17 29° 263° (W) 22:02:52 437.325/437.525
ESTCUBE 1 17 Jan 21:58:05 22:01:55 28° 72° (ENE) 22:05:45 437.505/2401.250
TIGRISAT 17 Jan 22:06:31 22:10:57 79° 284° (WNW) 22:15:29 435.000
BY70-1 17 Jan 22:14:44 22:17:26 67° 260° (W) 22:20:25 436.1900
SRMSAT 17 Jan 22:14:59 22:18:41 17° 196° (SSW) 22:22:23 437.500
ANTELSAT 17 Jan 22:21:07 22:25:23 48° 285° (WNW) 22:29:44 437.575/2403.000
VELOX 1 17 Jan 22:23:29 22:26:31 18° 70° (ENE) 22:29:34 145.980
QB50P1 17 Jan 22:24:08 22:25:32 11° 94° (E) 22:26:57 145.935-145.965
POLYITAN 1 17 Jan 22:26:48 22:28:44 13° 94° (E) 22:30:39 437.675
QB50P2 17 Jan 22:27:35 22:29:54 14° 95° (E) 22:32:12 145.880/145.840
PRISM 17 Jan 22:28:25 22:28:35 10° 293° (WNW) 22:28:44 437.425
AO-85 17 Jan 22:30:07 22:31:03 11° 52° (NE) 22:32:00 145.980
50 SAT 17 Jan 22:37:12 22:39:20 15° 71° (ENE) 22:41:29 437.505
RS-15 17 Jan 22:44:18 22:55:20 52° 108° (ESE) 23:06:52 29.354- 29.394
POPSAT HIP 1 17 Jan 22:48:53 22:52:19 24° 97° (E) 22:55:45 437.405
DUCHIFAT 1 17 Jan 23:03:18 23:07:01 31° 98° (E) 23:10:45 145.980
DX 1 17 Jan 23:05:01 23:08:37 25° 71° (ENE) 23:12:12 434.975-435.025
NANOSAT C BR1 17 Jan 23:07:03 23:10:59 39° 99° (E) 23:14:55 145.865
UKube-1 17 Jan 23:10:35 23:13:48 21° 70° (ENE) 23:17:02 .
SPROUT 17 Jan 23:13:33 23:17:41 50° 75° (ENE) 23:21:48 437.525
CUBEBUG 1 17 Jan 23:16:16 23:20:37 57° 259° (W) 23:24:58 437.445
ISS 17 Jan 23:17:32 23:19:39 16° 323° (NW) 23:21:46 145.825
AISAT 17 Jan 23:24:36 23:29:03 74° 259° (WSW) 23:33:30 437.250
JAS-2 17 Jan 23:29:02 23:36:01 53° 287° (WNW) 23:43:31 435.910
ESTCUBE 1 17 Jan 23:35:20 23:38:38 20° 264° (W) 23:41:58 437.505/2401.250
BUGSAT 1 17 Jan 23:50:03 23:53:48 37° 99° (E) 23:57:34 437.445
QB50P1 17 Jan 23:57:27 00:01:24 40° 286° (WNW) 00:05:21 145.935-145.965
VELOX 1 17 Jan 23:58:48 00:02:42 30° 262° (W) 00:06:37 145.980
POLYITAN 1 18 Jan 00:00:42 00:04:35 37° 286° (WNW) 00:08:29 437.675
QB50P2 18 Jan 00:01:55 00:05:42 33° 287° (WNW) 00:09:30 145.880/145.840
AO-85 18 Jan 00:07:56 00:11:38 45° 246° (WSW) 00:15:25 145.980
50 SAT 18 Jan 00:09:33 00:12:19 21° 263° (W) 00:15:07 437.505
POPSAT HIP 1 18 Jan 00:24:50 00:27:54 20° 289° (WNW) 00:30:58 437.405
PCSat 18 Jan 00:35:08 00:40:31 78° 113° (ESE) 00:45:56 145.827
AIST 1 18 Jan 00:39:23 00:43:01 27° 79° (E) 00:46:36
DUCHIFAT 1 18 Jan 00:39:54 00:42:23 16° 290° (WNW) 00:44:53 145.980
DX 1 18 Jan 00:41:26 00:44:41 20° 263° (W) 00:47:57 434.975-435.025
NANOSAT C BR1 18 Jan 00:44:29 00:46:19 13° 291° (WNW) 00:48:09 145.865
UKube-1 18 Jan 00:46:06 00:49:38 25° 263° (W) 00:53:11 .
TISAT 1 18 Jan 00:51:53 00:56:04 81° 259° (W) 01:00:15 437.305
YUBILEINY 18 Jan 00:53:05 01:01:20 43° 79° (ENE) 01:09:29 435.215
RS-15 18 Jan 00:57:00 01:07:55 42° 308° (NW) 01:19:23 29.354- 29.394
ITUPSAT 1 18 Jan 01:08:52 01:12:43 25° 70° (ENE) 01:16:35 437.325
Gurwin Techsat 1B 18 Jan 01:20:56 01:26:02 46° 100° (E) 01:31:06 435.225
BUGSAT 1 18 Jan 01:27:14 01:28:47 12° 291° (WNW) 01:30:20 437.445
BEESAT 3 18 Jan 01:28:48 01:32:13 27° 58° (ENE) 01:35:37 437.485
Oscar 19 18 Jan 01:30:04 01:35:13 69° 285° (WNW) 01:40:18 437.125/150
Cosmos 2491 18 Jan 01:33:09 01:41:26 51° 90° (E) 01:49:44 435.465 / 435.565
BEESAT 18 Jan 01:44:30 01:49:11 67° 75° (ENE) 01:53:55 436.000
SWISSCUBE 18 Jan 01:45:47 01:50:30 79° 77° (ENE) 01:55:17 437.505
PHONESAT 2.4 18 Jan 01:46:10 01:48:27 73° 151° (SSE) 01:50:46 2401.200-2431.200
M-CUBED/EXP-1 PRIME 18 Jan 01:50:10 01:52:03 13° 65° (ENE) 01:53:54 437.505
Cosmos 2504 18 Jan 02:01:28 02:08:44 61° 82° (E) 02:15:46 435.465 / 435.565
MOZHAYETS 4 18 Jan 02:06:15 02:10:07 28° 72° (ENE) 02:14:01
BEESAT 2 18 Jan 02:07:06 02:10:42 30° 58° (ENE) 02:14:15 435.950
ITAMSAT 1 18 Jan 02:07:27 02:11:30 23° 97° (E) 02:15:32 435.822/435.867
AIST 1 18 Jan 02:17:40 02:20:18 16° 272° (W) 02:22:56
PCSat 18 Jan 02:22:26 02:24:28 12° 308° (NW) 02:26:31 145.827
AUBIESAT-1 18 Jan 02:27:21 02:31:04 27° 69° (ENE) 02:34:38 437.475
ITUPSAT 1 18 Jan 02:46:32 02:50:24 25° 263° (W) 02:54:17 437.325
CUBESAT XI-V 18 Jan 02:47:43 02:48:25 10° 66° (ENE) 02:49:08 437.345
YUBILEINY 18 Jan 02:50:15 02:57:46 33° 274° (W) 03:05:16 435.215
CUSAT 1 18 Jan 02:55:39 02:59:49 55° 93° (E) 03:05:22 437.405
Gurwin Techsat 1B 18 Jan 03:02:11 03:05:33 17° 293° (WNW) 03:08:54 435.225
KKS-1 18 Jan 03:06:09 03:10:21 42° 74° (ENE) 03:14:33 437.445
BEESAT 3 18 Jan 03:06:55 03:09:35 17° 251° (WSW) 03:12:16 437.485
AO-7 18 Jan 03:09:08 03:17:23 59° 104° (ESE) 03:25:31 29.400- 29.500
DANDE 18 Jan 03:20:46 03:22:42 15° 84° (E) 03:24:53 436.750
PHONESAT 2.4 18 Jan 03:21:31 03:22:49 14° 343° (NNW) 03:24:08 2401.200-2431.200
RS-15 18 Jan 03:21:37 03:25:14 11° 338° (NNW) 03:28:52 29.354- 29.394
M-CUBED/EXP-1 PRIME 18 Jan 03:21:42 03:26:07 49° 255° (WSW) 03:30:20 437.505
Cosmos 2491 18 Jan 03:31:24 03:38:27 27° 285° (WNW) 03:45:34 435.465 / 435.565
MOZHAYETS 4 18 Jan 03:43:55 03:47:12 20° 264° (W) 03:50:32
BEESAT 2 18 Jan 03:45:43 03:48:11 16° 251° (WSW) 03:50:37 435.950
ITAMSAT 1 18 Jan 03:46:20 03:50:54 32° 289° (WNW) 03:55:29 435.822/435.867
Cosmos 2504 18 Jan 03:57:01 04:01:16 17° 277° (W) 04:05:28 435.465 / 435.565
BRITE-PL 18 Jan 04:01:30 04:05:20 24° 94° (E) 04:08:56 437.365/2234.400
AUBIESAT-1 18 Jan 04:02:00 04:05:20 21° 258° (WSW) 04:08:34 437.475
STARS 18 Jan 04:06:56 04:11:20 83° 259° (W) 04:15:44 437.465
HORYU 2 18 Jan 04:14:36 04:16:36 13° 95° (E) 04:18:37 437.375
GOMX 1 18 Jan 04:21:21 04:22:54 12° 92° (E) 04:24:25 467.674
